Location: Truman State University Observatory
(40.1787°N, 92.6006°W)
Time: 08:15:57
(UTC-05:00)

Tiangong 1 - Visible Passes

Search period start: 25 September 2017 00:00
Search period end: 05 October 2017 00:00
Orbit: 303 x 327 km, 42.8° (Epoch: 25 September)

Date Brightness Start Highest point End Pass type
(mag) Time Alt. Az. Time Alt. Az. Time Alt. Az.
25 Sep 2.4 05:22:50 26° SE 05:22:50 26° SE 05:24:14 10° SE visible
26 Sep 2.9 05:36:07 16° S 05:36:07 16° S 05:37:02 10° SSE visible
02 Oct 3.2 19:58:31 10° S 19:59:01 12° SSE 19:59:01 12° SSE visible
03 Oct 2.3 20:09:51 10° SSW 20:11:30 23° S 20:11:30 23° S visible
04 Oct 1.9 20:21:58 10° WSW 20:23:45 35° SW 20:23:45 35° SW visible
